Hourly Data Report for October 02, 2016

All times are specified in Local Standard Time (LST). Add 1 hour to adjust for Daylight Saving Time where and when it is observed.

ST LEONARD CS
NEW BRUNSWICK

47°09'28.050" N
67°49'55.014" W
245.00 m
810I001
71019
WIY

Download Data

Hourly Data (October 2016)
Hourly Data Report for October 2, 2016
Temp Definition
°C
Dew Point Temp Definition
°C
Rel Hum Definition
%
Wind Dir Definition
10's deg

Wind Spd Definition
km/h
Visibility Definition
km
Stn Press Definition
kPa
Hmdx Definition


Wind Chill Definition


Weather Definition


TIME
00:00 8.1 7.2 94 7 1   99.49     LegendNANA
01:00 8.1 7.4 95 0 1   99.47     LegendNANA
02:00 7.9 7.1 95 23 2   99.45     LegendNANA
03:00 7.5 6.8 95 34 4   99.41     LegendNANA
04:00 7.5 6.9 96 36 3   99.36     LegendNANA
05:00 7.6 7.0 96 22 3   99.33     LegendNANA
06:00 7.2 6.6 96 0 1   99.27     LegendNANA
07:00 6.9 6.3 96 3 3   99.27     LegendNANA
08:00 8.0 7.5 97   0   99.22     LegendNANA
09:00 10.2 9.4 95 28 2   99.21     LegendNANA
10:00 11.5 9.4 87 25 3   99.18     LegendNANA
11:00 13.6 8.4 71 23 7   99.14     LegendNANA
12:00 15.6 7.5 59 20 5   99.04     LegendNANA
13:00 17.3 8.0 54 26 4   98.92     LegendNANA
14:00 18.0 8.0 52 15 8   98.83     LegendNANA
15:00 18.7 6.8 46 20 10   98.72     LegendNANA
16:00 18.0 6.1 46 20 12   98.66     LegendNANA
17:00 16.7 6.3 50 20 7   98.61     LegendNANA
18:00 12.9 7.5 70 17 7   98.56     LegendNANA
19:00 13.1 7.2 67 20 9   98.54     LegendNANA
20:00 11.4 6.9 73 19 7   98.52     LegendNANA
21:00 10.9 6.7 75 22 5   98.49     LegendNANA
22:00 10.5 7.1 79 20 7   98.46     LegendNANA
23:00 8.8 7.0 89 16 5   98.38     LegendNANA

Notes on Data Quality.

Legend

  • E = Estimated
  • M = Missing
  • NA = Not Available
  • ‡ = Partner data that is not subject to review by the National Climate Archives
Date modified: